TimeCST,TemperatureF,Dew PointF,Humidity,Sea Level PressureIn,VisibilityMPH,Wind Direction,Wind SpeedMPH,Gust SpeedMPH,PrecipitationIn,Events,Conditions,WindDirDegrees,DateUTC
12:53 AM,73.0,68.0,84,29.76,10.0,Calm,Calm,-,N/A,,Overcast,0,2011-11-15 06:53:00
1:53 AM,72.0,68.0,87,29.75,9.0,SE,3.5,-,N/A,,Overcast,140,2011-11-15 07:53:00
2:53 AM,72.0,68.0,87,29.73,9.0,Calm,Calm,-,N/A,,Overcast,0,2011-11-15 08:53:00
3:13 AM,71.6,69.8,94,29.75,9.0,East,3.5,-,N/A,,Overcast,80,2011-11-15 09:13:00
3:30 AM,73.4,69.8,88,29.75,9.0,Calm,Calm,-,N/A,,Overcast,0,2011-11-15 09:30:00
3:53 AM,73.0,69.1,87,29.72,9.0,East,4.6,-,N/A,,Overcast,100,2011-11-15 09:53:00
4:08 AM,71.6,69.8,94,29.74,8.0,ESE,5.8,-,N/A,,Overcast,110,2011-11-15 10:08:00
4:53 AM,72.0,69.1,91,29.69,9.0,East,4.6,-,N/A,,Overcast,100,2011-11-15 10:53:00
5:53 AM,72.0,69.1,91,29.70,9.0,ESE,3.5,-,N/A,,Overcast,110,2011-11-15 11:53:00
7:08 AM,71.6,69.8,94,29.75,9.0,SE,3.5,-,0.00,Thunderstorm,Overcast,130,2011-11-15 13:08:00
7:56 AM,69.8,68.0,94,29.77,1.8,West,25.3,41.4,0.14,Rain-Thunderstorm,Heavy Rain,280,2011-11-15 13:56:00
8:05 AM,66.2,64.4,94,29.76,1.5,WNW,19.6,32.2,0.24,Rain-Thunderstorm,Heavy Rain,300,2011-11-15 14:05:00
8:09 AM,66.2,64.4,94,29.75,3.0,NW,15.0,26.5,0.26,Rain-Thunderstorm,Heavy Rain,320,2011-11-15 14:09:00
8:16 AM,66.2,62.6,88,29.76,6.0,NW,13.8,25.3,0.27,Rain-Thunderstorm,Light Rain,310,2011-11-15 14:16:00
8:26 AM,66.2,62.6,88,29.76,10.0,NNW,8.1,21.9,0.27,Rain-Thunderstorm,Light Rain,340,2011-11-15 14:26:00
8:53 AM,68.0,64.0,87,29.73,10.0,NNE,10.4,-,0.27,Thunderstorm,Mostly Cloudy,20,2011-11-15 14:53:00
9:53 AM,66.9,64.0,90,29.77,6.0,NNW,6.9,-,0.06,Rain-Thunderstorm,Light Thunderstorms and Rain,330,2011-11-15 15:53:00
10:08 AM,66.2,64.4,94,29.80,7.0,West,5.8,-,0.01,Rain,Rain,270,2011-11-15 16:08:00
10:53 AM,68.0,64.0,87,29.75,10.0,NNW,4.6,-,0.02,,Scattered Clouds,340,2011-11-15 16:53:00
11:53 AM,70.0,64.0,81,29.68,10.0,NNE,9.2,-,0.00,,Scattered Clouds,30,2011-11-15 17:53:00
12:53 PM,75.0,64.9,71,29.69,10.0,WSW,13.8,-,N/A,,Partly Cloudy,240,2011-11-15 18:53:00
1:30 PM,73.4,64.4,73,29.72,10.0,West,19.6,25.3,N/A,,Overcast,260,2011-11-15 19:30:00
1:53 PM,73.0,63.0,71,29.69,10.0,West,12.7,21.9,N/A,,Overcast,260,2011-11-15 19:53:00
2:53 PM,77.0,62.1,60,29.67,10.0,WNW,9.2,-,N/A,,Partly Cloudy,300,2011-11-15 20:53:00
3:53 PM,78.1,60.1,54,29.67,10.0,NW,3.5,-,N/A,,Clear,310,2011-11-15 21:53:00
4:53 PM,77.0,61.0,58,29.68,10.0,WSW,8.1,-,N/A,,Clear,250,2011-11-15 22:53:00
5:53 PM,73.0,63.0,71,29.70,10.0,SSW,3.5,-,N/A,,Clear,210,2011-11-15 23:53:00
6:53 PM,71.1,64.0,78,29.73,10.0,WSW,8.1,-,N/A,,Clear,240,2011-11-16 00:53:00
7:53 PM,69.1,64.0,84,29.74,10.0,Calm,Calm,-,N/A,,Clear,0,2011-11-16 01:53:00
8:53 PM,66.9,63.0,87,29.76,10.0,Calm,Calm,-,N/A,,Clear,0,2011-11-16 02:53:00
9:53 PM,64.0,61.0,90,29.77,10.0,Calm,Calm,-,N/A,,Clear,0,2011-11-16 03:53:00
10:53 PM,63.0,60.1,90,29.77,10.0,West,3.5,-,N/A,,Clear,280,2011-11-16 04:53:00
11:53 PM,62.1,60.1,93,29.77,10.0,Calm,Calm,-,N/A,,Clear,0,2011-11-16 05:53:00